OK2ZA-6 Weather Reports


Display with metric or nautical units.
time (UTC)temp
F
wind
direction
speed
MPH
gust
MPH
rain 1hr
in
rain 24hr
in
rain mn
in
humidity
%
barometer
mb
20260505210003 60 106 7.0 12.0 0.00 0.00 0.00 65 1005.3
20260505205003 60 105 8.0 14.0 0.00 0.00 0.00 63 1005.2
20260505204003 60 96 9.0 13.0 0.00 0.00 0.00 62 1005.2
20260505203003 60 97 8.0 14.0 0.00 0.00 0.00 62 1005.1
20260505202003 61 98 10.0 14.0 0.00 0.00 0.00 61 1005.1
20260505201003 61 97 9.0 18.0 0.00 0.00 0.00 60 1005.3
20260505200003 61 101 9.0 15.0 0.00 0.00 0.00 60 1005.2
20260505195003 61 97 8.0 15.0 0.00 0.00 0.00 60 1005.2
20260505194004 62 101 8.0 15.0 0.00 0.00 0.00 60 1005.1
20260505193003 62 101 9.0 14.0 0.00 0.00 0.00 59 1005.0
20260505192004 63 104 9.0 18.0 0.00 0.00 0.00 58 1005.0
20260505191004 63 105 9.0 17.0 0.00 0.00 0.00 58 1005.1
20260505190004 64 107 10.0 18.0 0.00 0.00 0.00 57 1005.1
20260505185004 64 110 9.0 16.0 0.00 0.00 0.00 56 1005.1
20260505184004 64 112 10.0 19.0 0.00 0.00 0.00 55 1005.1
20260505183004 65 108 11.0 17.0 0.00 0.00 0.00 55 1005.2
20260505182003 65 109 10.0 18.0 0.00 0.00 0.00 54 1004.9
20260505181004 66 112 9.0 17.0 0.00 0.00 0.00 53 1005.0
20260505180004 67 112 12.0 22.0 0.00 0.00 0.00 52 1005.0
20260505175004 68 115 10.0 19.0 0.00 0.00 0.00 50 1005.0
20260505174004 69 124 13.0 25.0 0.00 0.00 0.00 48 1004.9
20260505173004 70 137 12.0 21.0 0.00 0.00 0.00 46 1004.8
20260505172003 70 135 13.0 21.0 0.00 0.00 0.00 45 1004.8
20260505171004 71 134 13.0 21.0 0.00 0.00 0.00 45 1004.7
20260505170004 72 132 13.0 20.0 0.00 0.00 0.00 43 1004.7
20260505165003 73 133 11.0 21.0 0.00 0.00 0.00 42 1004.7
20260505164004 74 125 10.0 17.0 0.00 0.00 0.00 41 1004.6
20260505163003 74 121 11.0 19.0 0.00 0.00 0.00 41 1004.7
20260505162003 74 116 10.0 20.0 0.00 0.00 0.00 40 1004.6
20260505161003 75 115 12.0 24.0 0.00 0.00 0.00 38 1004.7